Below is the TLE for NORAD CAT ID 41909. This is the correct set of
Keplerian Elements for BY70-1 per Nico Janssen, PA0DLO (Thanks Nico!).
BY70-1 and its other associated launch objects did not reach their desired
orbits and will burn up soon. I decided to send out this data set early to
allow us to work it before it does burn up.
BY70-1
1 41909U 16083C 16364.52556780 -.00000712 22465-5 00000 0 0 9993
2 41909 97.5924 76.0922 0226197 2.0368 358.2431 15.66961453 207